N0OQA Weather Reports


time (UTC)temp
F
wind
direction
speed
knots
gust
knots
rain 1hr
in
rain 24hr
in
rain mn
in
humidity
%
barometer
mb
20260504050353 56 179 3.5 5.2 0.00 0.00 0.00 48 1002.8
20260504045853 56 201 3.5 4.3 0.00 0.00 0.00 48 1002.9
20260504045353 56 214 3.5 5.2 0.00 0.00 0.00 48 1002.9
20260504041851 57 179 3.5 5.2 0.00 0.00 0.00 46 1003.7
20260504041350 57 190 3.5 4.3 0.00 0.00 0.00 46 1003.9
20260504040350 57 191 3.5 4.3 0.00 0.00 0.00 46 1004.1
20260504035349 57 193 3.5 5.2 0.00 0.00 0.00 45 1004.4
20260504034849 57 184 3.5 4.3 0.00 0.00 0.00 45 1004.4
20260504034349 57 193 3.5 4.3 0.00 0.00 0.00 44 1004.5
20260504033849 57 201 3.5 4.3 0.00 0.00 0.00 45 1004.6
20260504033348 57 187 0.9 3.5 0.00 0.00 0.00 44 1004.7
20260504032848 57 0 0.0 0.0 0.00 0.00 0.00 43 1004.8
20260504032348 57 0 0.0 0.0 0.00 0.00 0.00 43 1004.9
20260504031847 57 0 0.0 0.0 0.00 0.00 0.00 43 1005.0
20260504031347 58 0 0.0 0.0 0.00 0.00 0.00 42 1005.1
20260504030847 58 0 0.0 0.0 0.00 0.00 0.00 41 1005.3
20260504025346 59 0 0.0 0.0 0.00 0.00 0.00 40 1005.4
20260504024345 60 0 0.0 0.0 0.00 0.00 0.00 38 1005.5
20260504023845 60 0 0.0 0.0 0.00 0.00 0.00 37 1005.5
20260504023345 61 0 0.0 0.0 0.00 0.00 0.00 36 1005.6
20260504020343 63 260 4.3 5.2 0.00 0.00 0.00 33 1005.8
20260503110244 51 0 0.0 0.0 0.00 0.00 0.00 63 1006.6
20260503100240 53 212 4.3 6.1 0.00 0.00 0.00 56 1006.5
20260503090237 55 0 0.0 0.0 0.00 0.00 0.00 54 1006.6
20260503080734 56 231 4.3 5.2 0.00 0.00 0.00 55 1007.0
20260503080234 56 233 4.3 6.1 0.00 0.00 0.00 55 1007.0
20260503072231 56 0 0.0 0.0 0.00 0.00 0.00 56 1007.3
20260503071231 56 0 0.0 0.0 0.00 0.00 0.00 57 1007.3
20260503070730 56 195 1.7 3.5 0.00 0.00 0.00 56 1007.3
20260503070230 56 0 0.0 0.0 0.00 0.00 0.00 56 1007.3